This demonstration page uses our WeatherBlox Daily Observations layout. Learn more.

Left ArrowRight Arrow

Hourly Observations for May 6, 2018

Temp ( °F °C ) Dew Point ( °F °C ) Humidity (%) Winds ( mph kmh ) Pressure ( in mb ) Visibility ( mi km ) Precip ( " mm )
12:53 am 00:53 Clear 63 17.2 55 12.8 76 76 NNW 3 6 29.89 1012 10 16 0.00 0.00
1:53 am 01:53 Clear 63 17.2 54 12.2 73 73 NNW 5 7 29.89 1012 10 16 0.00 0.00
2:53 am 02:53 Clear 62 16.7 55 12.8 78 78 WSW 3 6 29.90 1013 10 16 0.00 0.00
3:53 am 03:53 Clear 59 15 55 12.8 87 87 Calm 29.91 1013 10 16 0.00 0.00
4:53 am 04:53 Clear 59 15 54 12.2 83 83 WSW 3 6 29.93 1014 10 16 0.00 0.00
5:53 am 05:53 Clear 60 15.6 51 10.6 72 72 SSE 3 6 29.94 1014 10 16 0.00 0.00
6:53 am 06:53 Sunny 59 15 50 10 72 72 S 7 11 29.98 1015 10 16 0.00 0.00
7:53 am 07:53 Sunny 60 15.6 48 8.9 65 65 S 7 11 29.98 1015 10 16 0.00 0.00
8:53 am 08:53 Sunny 62 16.7 47 8.3 58 58 S 9 15 30.00 1016 10 16 0.00 0.00
9:53 am 09:53 Sunny 66 18.9 45 7.2 47 47 SSE 8 13 30.01 1016 10 16 0.00 0.00
10:53 am 10:53 Sunny 68 20 47 8.3 47 47 S 6 9 30.01 1016 10 16 0.00 0.00
11:53 am 11:53 Sunny 71 21.7 48 8.9 44 44 VRB 5 7 30.01 1016 10 16 0.00 0.00
12:53 pm 12:53 Sunny 74 23.3 45 7.2 36 36 SE 8 13 30.00 1016 10 16 0.00 0.00
1:53 pm 13:53 Sunny 76 24.4 42 5.6 30 30 SSE 8 13 29.98 1015 10 16 0.00 0.00
2:53 pm 14:53 Sunny 79 26.1 32 0 18 18 S 7 11 29.98 1015 10 16 0.00 0.00
3:53 pm 15:53 Sunny 79 26.1 33 0.6 19 19 W 3 6 29.96 1015 10 16 0.00 0.00
4:53 pm 16:53 Sunny 81 27.2 31 -0.6 16 16 SSE 10 17 29.96 1015 10 16 0.00 0.00
5:53 pm 17:53 Sunny 80 26.7 33 0.6 18 18 SSE 9 15 29.96 1015 10 16 0.00 0.00
6:53 pm 18:53 Sunny 78 25.6 34 1.1 20 20 SSE 10 17 29.96 1015 10 16 0.00 0.00
7:53 pm 19:53 Sunny 73 22.8 43 6.1 34 34 SSE 6 9 29.97 1015 10 16 0.00 0.00
8:53 pm 20:53 Clear 71 21.7 42 5.6 35 35 Calm 29.99 1016 10 16 0.00 0.00
9:53 pm 21:53 Clear 67 19.4 48 8.9 51 51 Calm 30.01 1016 10 16 0.00 0.00
10:53 pm 22:53 Clear 64 17.8 45 7.2 50 50 Calm 30.03 1017 10 16 0.00 0.00
11:53 pm 23:53 Clear 61 16.1 45 7.2 56 56 Calm 30.04 1017 10 16 0.00 0.00

Powered by AerisWeather